Flag for Haiti Weather past 2 weeks in Port-au-Prince, Haiti

Now
70 °F

Passing clouds.


Feels Like: 70 °F
Forecast: 72 / 82 °F
Wind: No wind

Location: Santiago

Current Time: Mar 31, 2015 at 6:03:53 AM

Latest Report: Mar 31, 2015 at 5:00 AM


Visibility: N/A

Pressure: 29.98 "Hg

Humidity: 100%

Dew point: 70 °F

Location of Port-au-PrinceLocation

Historic Weather in Port-au-Prince — Graph

°F

Port-au-Prince temperature yesterday

Maximum temperature yesterday: 82 °F (at 11:00 AM)
Minimum temperature yesterday: 68 °F (at 6:00 AM)
Average temperature yesterday: 76 °F

Past Weeks' High & Low Weather Summary

 TemperatureHumidityPressure
High90 °F (Mar 28, 4:00 PM)100% (Mar 16, 5:00 AM)30.12 "Hg (Mar 16, 5:00 AM)
Low63 °F (Mar 17, 7:00 AM)40% (Mar 29, 5:00 PM)29.86 "Hg (Mar 20, 8:00 AM)
Average77 °F77%30.01 "Hg
* Reported Mar 16 5:00 AM — Mar 31 5:00 AM, Port-au-Prince, Weather by CustomWeather, © 2015

Note: Actual official high and low records may vary slightly from our data, if they occured in-between our weather recording intervals... More about our weather records

Advertising

Port-au-Prince weather history for previous 24 hours

 ConditionsComfort  
Time TempWeatherWind HumidityBarometerVisibility
5:00 AM
Tue, Mar 31
70 °FPassing clouds.No wind100%29.98 "HgN/A
4:00 AM70 °FPassing clouds.No wind100%29.98 "HgN/A
3:00 AM70 °FPassing clouds.No wind100%29.98 "HgN/A
2:00 AM70 °FPassing clouds.No wind100%30.01 "HgN/A
1:00 AM70 °FPassing clouds.No wind94%30.04 "HgN/A
12:00 AM73 °FPassing clouds.5 mph89%30.04 "HgN/A
11:00 PM
Mon, Mar 30
75 °FPassing clouds.6 mph78%30.04 "HgN/A
10:00 PM75 °FPassing clouds.7 mph78%30.04 "HgN/A
9:00 PM75 °FPassing clouds.5 mph78%30.04 "HgN/A
8:00 PM77 °FPassing clouds.7 mph74%30.01 "HgN/A
7:00 PM81 °FPassing clouds.7 mph58%29.98 "HgN/A
6:00 PM82 °FPartly sunny.9 mph55%29.98 "HgN/A
5:00 PM82 °FPartly sunny.10 mph55%29.98 "HgN/A
4:00 PM81 °FPartly sunny.5 mph54%29.98 "HgN/A
3:00 PM81 °FPartly sunny.7 mph54%30.01 "HgN/A
2:00 PM77 °FScattered showers. Partly sunny.12 mph69%30.07 "Hg5 mi
1:00 PM79 °FPartly sunny.9 mph61%30.07 "HgN/A
12:00 PM79 °FPartly sunny.10 mph65%30.09 "HgN/A
11:00 AM82 °FScattered showers. Partly sunny.8 mph55%30.09 "Hg5 mi
10:00 AM81 °FScattered clouds.No wind58%30.09 "HgN/A
9:00 AM77 °FScattered clouds.No wind74%30.09 "HgN/A
8:00 AM68 °FScattered clouds.No wind100%30.04 "HgN/A
7:00 AM68 °FScattered clouds.No wind94%30.04 "HgN/A
6:00 AM68 °FPassing clouds.No wind100%30.04 "HgN/A
Weather by CustomWeather, © 2015

See weather overviewHow to use our weather pages